Погода в Седанке

Россия / Камчатский край     57°43′31″N   158°17′15″E
темп.,
°C
ветер,
м/с
пор.,
м/с
влажн.,
%
обл.,
%
осадки,
мм/ч
давл.,
гПа
погр.,
м
18 января, вт
вт1800:00−24св22925 0.0 10189
03:00−24св22915 0.0 101812
06:00−25вюв118852 0.0 10179
09:00−18св228296 0.0 101744
12:00−18св23865 0.0 101731
15:00−16ссв22865 0.0 101626
18:00−19св33885 0.0 101617
21:00−21всв22915 0.0 101710
19 января, ср
ср1900:00−22в22919 0.0 10179
03:00−21всв229198 0.0 101612
06:00−19св338863 0.0 101625
09:00−21всв229116 0.0 101611
12:00−18всв228971 0.0 101631
15:00−13всв358643 0.0 101672
18:00−17св338612 0.0 101614
21:00−21ссв22925 0.0 101710
20 января, чт
чт2000:00−22св22935 0.0 101711
03:00−22всв229348 0.0 10179
06:00−23св229429 0.0 101710
09:00
12:00−20св22925 0.0 101723
15:00−16св22895 0.0 101618
18:00
21:00−20св22925 0.0 101711
21 января, пт
пт2100:00−21всв229615 0.0 101610
03:00−22всв229715 0.0 101610
06:00−22всв22985 0.0 101612
09:00−23всв22985 0.0 101610
12:00−20всв11955 0.0 101615
15:00−16св22915 0.0 101513
18:00−20св11955 0.0 10159
21:00−22вюв00985 0.0 10159
22 января, сб
сб2200:00−24ююв1110025 0.0 10159
03:00−24ююв1110053 0.0 10159
06:00−25ююв1110047 0.0 10149
09:00−26ююв1110057 0.0 10149
12:00−23ююв1110048 0.0 101415
15:00−19юз01985 0.0 101310
18:00−23ююз111009 0.0 10139
21:00−24ю1110042 0.0 10149